EW4993 Weather Reports


Display with metric or nautical units.
time (UTC)temp
F
wind
direction
speed
MPH
gust
MPH
rain 1hr
in
rain 24hr
in
rain mn
in
humidity
%
barometer
mb
20260906183032 92 225 8.0 11.0 0.00 0.00 0.00 49 988.1
20260906181533 90 225 4.0 9.0 0.00 0.00 0.00 50 988.5
20260906180031 91 202 1.0 11.0 0.00 0.00 0.00 52 988.7
20260906174537 91 257 3.0 14.0 0.00 0.00 0.00 54 988.9
20260906173005 90 222 6.0 14.0 0.00 0.00 0.00 53 989.2
20260906171503 89 240 5.0 12.0 0.00 0.00 0.00 55 989.5
20260906170042 88 163 5.0 10.0 0.00 0.00 0.00 58 989.7
20260906164540 88 161 4.0 9.0 0.00 0.00 0.00 62 989.8
20260906163020 87 207 4.0 8.0 0.00 0.00 0.00 64 989.8
20260906161517 86 211 3.0 9.0 0.00 0.00 0.00 66 989.9
20260906160056 85 187 3.0 7.0 0.00 0.00 0.00 66 989.8
20260906154554 86 188 4.0 9.0 0.00 0.00 0.00 66 989.6
20260906153039 84 184 2.0 6.0 0.00 0.00 0.00 66 989.6
20260906151543 83 171 4.0 8.0 0.00 0.00 0.00 64 989.4
20260906150020 81 171 3.0 7.0 0.00 0.00 0.00 58 989.4
20260906144510 81 184 3.0 6.0 0.00 0.00 0.00 56 989.4
20260906143016 80 190 4.0 7.0 0.00 0.00 0.00 55 989.4
20260906141507 80 184 5.0 7.0 0.00 0.00 0.00 55 989.4
20260906140006 79 187 5.0 8.0 0.00 0.00 0.00 56 989.3
20260906134508 79 182 6.0 8.0 0.00 0.00 0.00 57 989.2
20260906133009 78 182 3.0 5.0 0.00 0.00 0.00 54 989.0
20260906131602 78 188 0.0 2.0 0.00 0.00 0.00 54 988.7
20260906130042 78 189 0.0 0.0 0.00 0.00 0.00 50 988.5
20260906124539 77 189 0.0 0.0 0.00 0.00 0.00 49 988.3
20260906123038 76 189 0.0 0.0 0.00 0.00 0.00 49 988.1
20260906121522 76 189 0.0 0.0 0.00 0.00 0.00 53 987.8
20260906120020 76 189 0.0 0.0 0.00 0.00 0.00 55 987.7
20260906114520 77 190 0.0 0.0 0.00 0.00 0.00 55 987.6
20260906113016 77 190 0.0 0.0 0.00 0.00 0.00 56 987.4
20260906111511 78 190 0.0 0.0 0.00 0.00 0.00 58 987.3
20260906110008 78 190 0.0 0.0 0.00 0.00 0.00 60 987.1
20260906104507 78 190 0.0 0.0 0.00 0.00 0.00 62 987.0
20260906103102 79 190 0.0 0.0 0.00 0.00 0.00 63 987.0
20260906101547 79 190 0.0 0.0 0.00 0.00 0.00 63 987.0
20260906100031 79 190 1.0 2.0 0.00 0.00 0.00 63 986.9
20260906094526 80 190 1.0 4.0 0.00 0.00 0.00 63 986.9
20260906093021 80 190 3.0 5.0 0.00 0.00 0.00 63 986.8
20260906091512 80 190 2.0 5.0 0.00 0.00 0.00 64 986.7
20260906090032 80 188 3.0 4.0 0.00 0.00 0.00 64 986.6
20260906084509 80 187 3.0 5.0 0.00 0.00 0.00 64 986.7
20260906083009 80 179 4.0 6.0 0.00 0.00 0.00 65 986.9
20260906081511 80 197 3.0 6.0 0.00 0.00 0.00 64 986.8
20260906080008 80 194 3.0 6.0 0.00 0.00 0.00 65 986.9
20260906074507 81 194 4.0 7.0 0.00 0.00 0.00 65 987.1
20260906073109 81 193 4.0 7.0 0.00 0.00 0.00 65 987.2
20260906071555 81 185 5.0 7.0 0.00 0.00 0.00 65 987.5
20260906070055 81 202 6.0 8.0 0.00 0.00 0.00 66 987.5
20260906064554 81 196 6.0 9.0 0.00 0.00 0.00 66 987.6
20260906063053 81 194 4.0 8.0 0.00 0.00 0.00 67 987.9
20260906061553 82 189 5.0 9.0 0.00 0.00 0.00 67 987.8
20260906060052 82 192 4.0 7.0 0.00 0.00 0.00 67 987.9
20260906054552 82 192 4.0 7.0 0.00 0.00 0.00 67 987.8
20260906053052 82 185 5.0 8.0 0.00 0.00 0.00 67 988.0
20260906051551 83 194 5.0 8.0 0.00 0.00 0.00 67 987.8
20260906050040 83 202 6.0 10.0 0.00 0.00 0.00 67 987.9
20260906044515 83 194 8.0 11.0 0.00 0.00 0.00 67 987.9
20260906043017 83 170 7.0 10.0 0.00 0.00 0.00 67 987.9
20260906041603 83 153 5.0 10.0 0.00 0.00 0.00 67 988.0
20260906040057 84 155 8.0 11.0 0.00 0.00 0.00 67 987.8
20260906034550 84 154 6.0 12.0 0.00 0.00 0.00 66 987.9
20260906033038 84 142 6.0 11.0 0.00 0.00 0.00 66 987.9
20260906031529 85 148 5.0 12.0 0.00 0.00 0.00 65 987.8
20260906030021 85 142 7.0 13.0 0.00 0.00 0.00 65 987.6
20260906024609 86 144 8.0 14.0 0.00 0.00 0.00 63 987.4
20260906023007 86 135 8.0 15.0 0.00 0.00 0.00 63 987.0
20260906021507 87 142 9.0 14.0 0.00 0.00 0.00 60 986.7
20260906020006 88 130 9.0 14.0 0.00 0.00 0.00 56 986.3
20260906014505 89 118 7.0 12.0 0.00 0.00 0.00 54 986.2
20260906013004 89 121 5.0 12.0 0.00 0.00 0.00 53 986.1
20260906011504 90 127 7.0 13.0 0.00 0.00 0.00 53 985.9
20260906010003 91 119 6.0 16.0 0.00 0.00 0.00 52 985.7
20260906004554 92 129 8.0 16.0 0.00 0.00 0.00 48 985.9
20260906003049 93 119 8.0 12.0 0.00 0.00 0.00 48 985.7
20260906001647 94 144 9.0 13.0 0.00 0.00 0.00 47 985.6
20260906000052 95 121 6.0 14.0 0.00 0.00 0.00 47 985.6
20260905234550 96 140 9.0 15.0 0.00 0.00 0.00 46 985.6
20260905233046 96 114 6.0 16.0 0.00 0.00 0.00 45 985.4
20260905231544 96 56 6.0 15.0 0.00 0.00 0.00 45 985.3
20260905230044 96 94 6.0 13.0 0.00 0.00 0.00 45 985.3
20260905224530 96 106 8.0 14.0 0.00 0.00 0.00 46 985.3
20260905223029 96 110 6.0 15.0 0.00 0.00 0.00 45 985.4
20260905221528 97 86 5.0 12.0 0.00 0.00 0.00 42 985.2
20260905220030 97 86 2.0 7.0 0.00 0.00 0.00 39 985.3
20260905214529 98 110 4.0 10.0 0.00 0.00 0.00 38 985.3
20260905213024 98 103 5.0 9.0 0.00 0.00 0.00 38 985.5
20260905211522 98 80 6.0 12.0 0.00 0.00 0.00 38 985.6
20260905210034 98 100 3.0 8.0 0.00 0.00 0.00 40 985.9
20260905204504 97 234 7.0 10.0 0.00 0.00 0.00 40 986.1
20260905203002 97 193 7.0 11.0 0.00 0.00 0.00 40 986.4
20260905201600 96 262 1.0 11.0 0.00 0.00 0.00 42 986.5
20260905200105 96 139 6.0 13.0 0.00 0.00 0.00 42 986.6
20260905194553 95 219 2.0 13.0 0.00 0.00 0.00 44 986.9
20260905193050 94 114 3.0 11.0 0.00 0.00 0.00 46 987.2
20260905191548 95 195 5.0 10.0 0.00 0.00 0.00 45 987.5
20260905190047 94 189 5.0 10.0 0.00 0.00 0.00 48 987.8
20260905184528 94 152 8.0 12.0 0.00 0.00 0.00 48 988.0